Regional Weather Roundup
Issued by NWS Goodland, KS

Home | Current Version | Previous Version | Text Only | Print | Product List | Glossary Off
Versions: 1 2 3 4 5 6 7 8 9 10 11 12 13 14 15 16 17 18 19 20 21 22 23 24 25 26 27 28 29 30 31 32 33 34 35 36 37 38 39 40 41 42 43 44 45 46 47 48 49 50

000
ASUS43 KGLD 020759
RWRGLD

GOODLAND FORECAST AREA HOURLY WEATHER ROUNDUP
NATIONAL WEATHER SERVICE GOODLAND KS
200 AM MDT TUE SEP 02 2014

...OFFICIAL OBSERVATIONS...

CITY           SKY/WX    TMP DP  RH WIND       PRES   REMARKS
GOODLAND KS    CLEAR     58  55  90 E6        30.07R
HILL CITY KS   CLEAR     60  57  89 CALM      30.02S
IMPERIAL NEB   CLEAR     54  52  93 N3        30.05F
MCCOOK NEB     CLEAR     58  54  86 CALM      30.04F
AKRON CO       CLEAR     51  47  86 MISG      30.10F
BURLINGTON CO  CLEAR     62  54  74 NE6       30.06R
LIMON CO       CLEAR     52  46  80 N3        30.12F
$$

...UNOFFICIAL OBSERVATIONS...

CITY           SKY/WX    TMP DP  RH WIND       PRES   REMARKS
COLBY KS       CLEAR     59  57  94 NE8       30.06F
NORTON KS      CLEAR     55  52  88 N5        30.02F
SHARON SPRINGS   N/A     64  62  92 SE7         N/A
WAKEENEY KS      N/A     62  58  86 MISG        N/A
KIT CARSON CO    N/A     61  51  70 CALM        N/A
$$



USA.gov is the U.S. government's official web portal to all federal, state and local government web resources and services.